timestamp,surface_pressure_avg,surface_temp_avg,battery_voltage,lat,long
2019-08-24 00:00:00+00:00,238.8614,18.8,12.97,47.84626,-54.09684
2019-08-24 00:10:00+00:00,241.2631,18.8,12.89,47.84626,-54.09684
2019-08-24 00:20:00+00:00,237.3664,18.8,12.97,47.84626,-54.09684
2019-08-24 00:30:00+00:00,236.5848,18.8,12.97,47.84626,-54.09684
2019-08-24 00:40:00+00:00,239.1564,18.8,12.97,47.84626,-54.09684
2019-08-24 00:50:00+00:00,241.6814,18.8,13.05,47.84626,-54.09684
2019-08-24 01:00:00+00:00,241.8714,18.8,12.97,47.84626,-54.09684
2019-08-24 01:10:00+00:00,244.323,18.8,12.89,47.84626,-54.09684
2019-08-24 01:20:00+00:00,247.7498,18.8,12.97,47.84626,-54.09684
2019-08-24 01:30:00+00:00,248.4247,18.8,12.97,47.84626,-54.09684
2019-08-24 01:40:00+00:00,253.5164,18.8,12.97,47.84626,-54.09684
2019-08-24 01:50:00+00:00,257.588,18.8,12.97,47.84626,-54.09684
2019-08-24 02:00:00+00:00,260.7431,18.83,12.97,47.84626,-54.09684
2019-08-24 02:10:00+00:00,265.4681,18.85,12.89,47.84626,-54.09684
2019-08-24 02:20:00+00:00,270.6214,18.85,12.97,47.84626,-54.09684
2019-08-24 02:30:00+00:00,272.2514,18.86,12.97,47.84626,-54.09684
2019-08-24 02:40:00+00:00,278.0014,18.86,12.97,47.84626,-54.09684
2019-08-24 02:50:00+00:00,287.8281,18.87,12.97,47.84626,-54.09684
2019-08-24 03:00:00+00:00,292.5863,18.87,12.89,47.84626,-54.09684
2019-08-24 03:10:00+00:00,294.2814,18.88,12.89,47.84626,-54.09684
2019-08-24 03:20:00+00:00,298.973,18.89,12.97,47.84626,-54.09684
2019-08-24 03:30:00+00:00,303.603,18.89,12.97,47.84626,-54.09684
2019-08-24 03:40:00+00:00,306.483,18.89,12.97,47.84626,-54.09684
2019-08-24 03:50:00+00:00,308.0164,18.89,12.97,47.84626,-54.09684
2019-08-24 04:00:00+00:00,309.9313,18.89,12.89,47.84626,-54.09684
2019-08-24 04:10:00+00:00,312.8646,18.89,12.81,47.84626,-54.09684
2019-08-24 04:20:00+00:00,315.4097,18.89,12.97,47.84626,-54.09684
2019-08-24 04:30:00+00:00,312.308,18.89,12.97,47.84626,-54.09684
2019-08-24 04:40:00+00:00,312.4613,18.88,12.97,47.84626,-54.09684
2019-08-24 04:50:00+00:00,315.6613,18.88,12.97,47.84626,-54.09684
2019-08-24 05:00:00+00:00,316.398,18.88,12.89,47.84626,-54.09684
2019-08-24 05:10:00+00:00,313.5863,18.88,12.81,47.84626,-54.09684
2019-08-24 05:20:00+00:00,312.9647,18.88,12.89,47.84626,-54.09684
2019-08-24 05:30:00+00:00,314.5514,18.89,12.97,47.84626,-54.09684
2019-08-24 05:40:00+00:00,315.6431,18.88,12.97,47.84626,-54.09684
2019-08-24 05:50:00+00:00,313.1979,18.87,12.97,47.84626,-54.09684
2019-08-24 06:00:00+00:00,311.218,18.84,12.89,47.84626,-54.09684
2019-08-24 06:10:00+00:00,313.1597,18.81,12.81,47.84626,-54.09684
2019-08-24 06:20:00+00:00,312.563,18.82,12.89,47.84626,-54.09684
2019-08-24 06:30:00+00:00,309.488,18.82,12.89,47.84626,-54.09684
2019-08-24 06:40:00+00:00,306.873,18.81,12.97,47.84626,-54.09684
2019-08-24 06:50:00+00:00,308.8713,18.81,12.97,47.84626,-54.09684
2019-08-24 07:00:00+00:00,307.7213,18.8,12.89,47.84626,-54.09684
2019-08-24 07:10:00+00:00,302.4231,18.8,12.81,47.84626,-54.09684
2019-08-24 07:20:00+00:00,297.7431,18.8,12.89,47.84626,-54.09684
2019-08-24 07:30:00+00:00,292.5764,18.8,12.89,47.84626,-54.09684
2019-08-24 07:40:00+00:00,285.683,18.8,12.89,47.84626,-54.09684
2019-08-24 07:50:00+00:00,278.1697,18.8,12.89,47.84626,-54.09684
2019-08-24 08:00:00+00:00,275.1047,18.8,12.81,47.84626,-54.09684
2019-08-24 08:10:00+00:00,273.5214,18.8,12.81,47.84626,-54.09684
2019-08-24 08:20:00+00:00,267.7681,18.8,12.89,47.84626,-54.09684
2019-08-24 08:30:00+00:00,256.9231,18.8,12.89,47.84626,-54.09684
2019-08-24 08:40:00+00:00,249.0048,18.8,12.89,47.84626,-54.09684
2019-08-24 08:50:00+00:00,243.0431,18.8,12.89,47.84626,-54.09684
2019-08-24 09:00:00+00:00,237.6764,18.8,12.81,47.84626,-54.09684
2019-08-24 09:10:00+00:00,232.8331,18.8,12.81,47.84626,-54.09684
2019-08-24 09:20:00+00:00,231.3764,18.8,12.89,47.84626,-54.09684
2019-08-24 09:30:00+00:00,226.9598,18.8,12.89,47.84626,-54.09684
2019-08-24 09:40:00+00:00,222.1548,18.8,12.89,47.84626,-54.09684
2019-08-24 09:50:00+00:00,219.1814,18.8,12.89,47.84626,-54.09684
2019-08-24 10:00:00+00:00,217.2314,18.8,12.81,47.84626,-54.09684
2019-08-24 10:10:00+00:00,215.8931,18.8,12.81,47.84626,-54.09684
2019-08-24 10:20:00+00:00,216.9365,18.8,12.89,47.84626,-54.09684
2019-08-24 10:30:00+00:00,211.8214,18.79,12.89,47.84626,-54.09684
2019-08-24 10:40:00+00:00,212.5981,18.79,13.05,47.84626,-54.09684
2019-08-24 10:50:00+00:00,220.8381,18.79,13.21,47.84626,-54.09684
2019-08-24 11:00:00+00:00,226.1181,18.78,13.29,47.84626,-54.09684
2019-08-24 11:10:00+00:00,224.2498,18.78,13.21,47.84626,-54.09684
2019-08-24 11:20:00+00:00,226.2564,18.77,13.37,47.84626,-54.09684
2019-08-24 11:30:00+00:00,229.1447,18.75,13.37,47.84626,-54.09684
2019-08-24 11:40:00+00:00,231.8931,18.74,13.44,47.84626,-54.09684
2019-08-24 11:50:00+00:00,232.9547,18.75,13.53,47.84626,-54.09684
2019-08-24 12:00:00+00:00,238.3264,18.74,13.68,47.84626,-54.09684
2019-08-24 12:10:00+00:00,242.3581,18.72,13.6,47.84626,-54.09684
2019-08-24 12:20:00+00:00,239.8497,18.71,13.68,47.84626,-54.09684
2019-08-24 12:30:00+00:00,240.0697,18.73,13.76,47.84626,-54.09684
2019-08-24 12:40:00+00:00,247.7314,18.73,14.0,47.84626,-54.09684
2019-08-24 12:50:00+00:00,253.2697,18.74,14.0,47.84626,-54.09684
2019-08-24 13:00:00+00:00,247.1748,18.75,13.76,47.84626,-54.09684
2019-08-24 13:10:00+00:00,246.3081,18.74,13.68,47.84626,-54.09684
2019-08-24 13:20:00+00:00,254.4713,18.72,13.76,47.84626,-54.09684
2019-08-24 13:30:00+00:00,259.4981,18.7,13.92,47.84626,-54.09684
2019-08-24 13:40:00+00:00,253.9231,18.7,14.24,47.84626,-54.09684
2019-08-24 13:50:00+00:00,254.8714,18.71,14.16,47.84626,-54.09684
2019-08-24 14:00:00+00:00,261.2497,18.7,14.08,47.84626,-54.09684
2019-08-24 14:10:00+00:00,264.9481,18.7,13.92,47.84626,-54.09684
2019-08-24 14:20:00+00:00,260.4931,18.7,14.0,47.84626,-54.09684
2019-08-24 14:30:00+00:00,266.0331,18.7,14.08,47.84626,-54.09684
2019-08-24 14:40:00+00:00,273.603,18.7,14.32,47.84626,-54.09684
2019-08-24 14:50:00+00:00,280.8197,18.7,14.32,47.84626,-54.09684
2019-08-24 15:00:00+00:00,281.3081,18.7,14.08,47.84626,-54.09684
2019-08-24 15:10:00+00:00,288.0696,18.7,14.0,47.84626,-54.09684
2019-08-24 15:20:00+00:00,290.7064,18.71,14.4,47.84626,-54.09684
2019-08-24 15:30:00+00:00,293.6381,18.76,14.32,47.84626,-54.09684
2019-08-24 15:40:00+00:00,295.153,18.78,14.4,47.84626,-54.09684
2019-08-24 15:50:00+00:00,304.1996,18.79,14.32,47.84626,-54.09684
2019-08-24 16:00:00+00:00,303.273,18.8,14.16,47.84626,-54.09684
2019-08-24 16:10:00+00:00,303.3064,18.81,14.16,47.84626,-54.09684
2019-08-24 16:20:00+00:00,311.4446,18.83,14.64,47.84626,-54.09684
2019-08-24 16:30:00+00:00,320.7029,18.8,14.24,47.84626,-54.09684
2019-08-24 16:40:00+00:00,317.6747,18.85,14.32,47.84626,-54.09684
2019-08-24 16:50:00+00:00,315.4947,18.89,14.32,47.84626,-54.09684
2019-08-24 17:00:00+00:00,322.4447,18.9,14.08,47.84626,-54.09684
2019-08-24 17:10:00+00:00,326.0113,18.88,14.0,47.84626,-54.09684
2019-08-24 17:20:00+00:00,322.433,18.88,14.08,47.84626,-54.09684
2019-08-24 17:30:00+00:00,322.0063,18.88,14.08,47.84626,-54.09684
2019-08-24 17:40:00+00:00,325.1014,18.88,14.16,47.84626,-54.09684
2019-08-24 17:50:00+00:00,325.373,18.87,14.24,47.84626,-54.09684
2019-08-24 18:00:00+00:00,323.8529,18.84,14.08,47.84626,-54.09684
2019-08-24 18:10:00+00:00,324.8447,18.8,14.0,47.84626,-54.09684
2019-08-24 18:20:00+00:00,325.308,18.8,14.08,47.84626,-54.09684
2019-08-24 18:30:00+00:00,321.1763,18.8,14.16,47.84626,-54.09684
2019-08-24 18:40:00+00:00,322.8046,18.8,14.32,47.84626,-54.09684
2019-08-24 18:50:00+00:00,325.6514,18.8,14.24,47.84626,-54.09684
2019-08-24 19:00:00+00:00,324.213,18.8,14.08,47.84626,-54.09684
2019-08-24 19:10:00+00:00,319.943,18.8,14.0,47.84626,-54.09684
2019-08-24 19:20:00+00:00,318.8279,18.8,14.0,47.84626,-54.09684
2019-08-24 19:30:00+00:00,322.5679,18.8,14.0,47.84626,-54.09684
2019-08-24 19:40:00+00:00,320.8047,18.8,14.0,47.84626,-54.09684
2019-08-24 19:50:00+00:00,312.9714,18.8,14.08,47.84626,-54.09684
2019-08-24 20:00:00+00:00,306.5847,18.8,14.0,47.84626,-54.09684
2019-08-24 20:10:00+00:00,302.2863,18.8,13.84,47.84626,-54.09684
2019-08-24 20:20:00+00:00,296.2564,18.8,14.0,47.84626,-54.09684
2019-08-24 20:30:00+00:00,286.5164,18.8,14.0,47.84626,-54.09684
2019-08-24 20:40:00+00:00,286.3147,18.8,13.92,47.84626,-54.09684
2019-08-24 20:50:00+00:00,281.5847,18.73,13.84,47.84626,-54.09684
2019-08-24 21:00:00+00:00,275.9031,18.7,13.76,47.84626,-54.09684
2019-08-24 21:10:00+00:00,270.2148,18.7,13.6,47.84626,-54.09684
2019-08-24 21:20:00+00:00,268.4264,18.7,13.6,47.84626,-54.09684
2019-08-24 21:30:00+00:00,262.4547,18.7,13.53,47.84626,-54.09684
2019-08-24 21:40:00+00:00,255.0931,18.7,13.53,47.84626,-54.09684
2019-08-24 21:50:00+00:00,249.6981,18.7,13.44,47.84626,-54.09684
2019-08-24 22:00:00+00:00,246.7814,18.7,13.37,47.84626,-54.09684
2019-08-24 22:10:00+00:00,240.7414,18.67,13.21,47.84626,-54.09684
2019-08-24 22:20:00+00:00,233.5748,18.66,13.21,47.84626,-54.09684
2019-08-24 22:30:00+00:00,233.5648,18.67,13.21,47.84626,-54.09684
2019-08-24 22:40:00+00:00,237.548,18.66,13.21,47.84626,-54.09684
2019-08-24 22:50:00+00:00,233.1697,18.63,13.13,47.84626,-54.09684
2019-08-24 23:00:00+00:00,229.3097,18.6,13.05,47.84626,-54.09684
2019-08-24 23:10:00+00:00,233.0231,18.6,12.97,47.84626,-54.09684
2019-08-24 23:20:00+00:00,232.6314,18.6,12.97,47.84626,-54.09684
2019-08-24 23:30:00+00:00,228.7932,18.59,12.97,47.84626,-54.09684
2019-08-24 23:40:00+00:00,227.9364,18.51,13.05,47.84626,-54.09684
2019-08-24 23:50:00+00:00,228.7264,18.54,13.05,47.84626,-54.09684
